TimeCDT,TemperatureF,Dew PointF,Humidity,Sea Level PressureIn,VisibilityMPH,Wind Direction,Wind SpeedMPH,Gust SpeedMPH,PrecipitationIn,Events,Conditions,WindDirDegrees,DateUTC
12:15 AM,79.9,55.6,43,29.80,10.0,SSE,19.6,27.6,N/A,,Scattered Clouds,160,2013-07-06 05:15:00
12:35 AM,79.2,55.6,44,29.79,10.0,SSE,21.9,26.5,N/A,,Clear,160,2013-07-06 05:35:00
12:55 AM,79.2,55.4,44,29.79,10.0,SSE,20.7,29.9,N/A,,Scattered Clouds,150,2013-07-06 05:55:00
1:15 AM,78.6,55.4,45,29.78,10.0,SSE,21.9,26.5,N/A,,Scattered Clouds,160,2013-07-06 06:15:00
1:35 AM,77.7,55.8,47,29.78,10.0,SSE,17.3,24.2,N/A,,Clear,160,2013-07-06 06:35:00
1:55 AM,77.2,55.8,47,29.78,10.0,SSE,17.3,21.9,N/A,,Clear,160,2013-07-06 06:55:00
2:15 AM,77.2,55.4,47,29.77,10.0,SSE,16.1,25.3,N/A,,Clear,160,2013-07-06 07:15:00
2:35 AM,77.2,55.4,47,29.77,10.0,SSE,17.3,24.2,N/A,,Clear,160,2013-07-06 07:35:00
2:55 AM,77.0,55.0,47,29.77,10.0,SSE,20.7,28.8,N/A,,Clear,160,2013-07-06 07:55:00
3:15 AM,76.3,55.4,48,29.77,10.0,SSE,18.4,26.5,N/A,,Clear,160,2013-07-06 08:15:00
3:35 AM,75.9,55.6,49,29.77,10.0,SSE,18.4,26.5,N/A,,Clear,160,2013-07-06 08:35:00
3:55 AM,75.2,55.8,51,29.77,10.0,SSE,16.1,24.2,N/A,,Clear,160,2013-07-06 08:55:00
4:15 AM,74.5,55.9,52,29.77,10.0,South,15.0,20.7,N/A,,Clear,170,2013-07-06 09:15:00
4:35 AM,73.8,56.3,54,29.77,10.0,SSE,13.8,18.4,N/A,,Clear,160,2013-07-06 09:35:00
4:55 AM,73.4,56.5,55,29.78,10.0,SSE,11.5,-,N/A,,Clear,160,2013-07-06 09:55:00
5:15 AM,72.9,56.3,56,29.78,10.0,South,12.7,18.4,N/A,,Clear,170,2013-07-06 10:15:00
5:35 AM,72.5,56.5,57,29.79,10.0,SSE,9.2,-,N/A,,Clear,150,2013-07-06 10:35:00
5:55 AM,70.9,56.5,60,29.79,10.0,SE,5.8,-,N/A,,Clear,140,2013-07-06 10:55:00
6:15 AM,70.7,57.2,62,29.79,10.0,SE,8.1,-,N/A,,Clear,140,2013-07-06 11:15:00
6:35 AM,70.7,57.6,63,29.79,10.0,SSE,6.9,-,N/A,,Clear,150,2013-07-06 11:35:00
6:55 AM,70.7,57.7,63,29.80,10.0,SSE,9.2,-,N/A,,Clear,150,2013-07-06 11:55:00
7:15 AM,70.5,57.7,64,29.81,10.0,SSE,6.9,-,N/A,,Clear,160,2013-07-06 12:15:00
7:35 AM,71.6,57.4,61,29.81,10.0,South,9.2,-,N/A,,Clear,180,2013-07-06 12:35:00
7:55 AM,72.0,57.4,60,29.80,10.0,SSE,11.5,17.3,N/A,,Clear,160,2013-07-06 12:55:00
8:15 AM,72.7,57.6,59,29.80,10.0,SSE,11.5,-,N/A,,Clear,160,2013-07-06 13:15:00
8:35 AM,73.6,57.2,56,29.80,10.0,South,13.8,-,N/A,,Clear,170,2013-07-06 13:35:00
8:55 AM,74.7,57.2,54,29.80,10.0,South,13.8,20.7,N/A,,Clear,170,2013-07-06 13:55:00
9:15 AM,75.6,56.7,52,29.80,10.0,South,15.0,-,N/A,,Clear,180,2013-07-06 14:15:00
9:35 AM,76.5,57.0,51,29.80,10.0,South,13.8,18.4,N/A,,Clear,190,2013-07-06 14:35:00
9:55 AM,77.2,57.2,50,29.80,10.0,South,11.5,-,N/A,,Clear,190,2013-07-06 14:55:00
10:15 AM,78.4,57.2,48,29.80,10.0,SSW,9.2,16.1,N/A,,Clear,210,2013-07-06 15:15:00
10:35 AM,79.9,57.4,46,29.80,10.0,SW,8.1,-,N/A,,Clear,220,2013-07-06 15:35:00
10:55 AM,80.6,57.7,45,29.80,10.0,SW,8.1,-,N/A,,Clear,230,2013-07-06 15:55:00
11:15 AM,81.5,57.2,43,29.80,10.0,WSW,5.8,-,N/A,,Clear,240,2013-07-06 16:15:00
11:35 AM,82.8,57.7,42,29.80,10.0,WSW,4.6,-,N/A,,Clear,250,2013-07-06 16:35:00
11:55 AM,84.2,57.0,39,29.80,10.0,NNW,3.5,-,N/A,,Clear,330,2013-07-06 16:55:00
12:15 PM,84.7,56.7,38,29.80,10.0,NW,4.6,-,N/A,,Clear,320,2013-07-06 17:15:00
12:35 PM,86.2,57.2,37,29.80,10.0,Calm,Calm,-,N/A,,Clear,0,2013-07-06 17:35:00
12:55 PM,86.7,56.7,36,29.80,10.0,NE,3.5,-,N/A,,Clear,40,2013-07-06 17:55:00
1:15 PM,88.5,57.0,34,29.80,10.0,NE,3.5,-,N/A,,Clear,40,2013-07-06 18:15:00
1:35 PM,89.6,57.0,33,29.80,10.0,North,5.8,-,N/A,,Clear,350,2013-07-06 18:35:00
1:55 PM,90.1,57.0,33,29.80,10.0,WNW,3.5,-,N/A,,Clear,300,2013-07-06 18:55:00
2:15 PM,90.9,57.4,32,29.80,10.0,NW,8.1,-,N/A,,Clear,320,2013-07-06 19:15:00
2:35 PM,91.6,56.5,30,29.80,10.0,Calm,Calm,-,N/A,,Clear,0,2013-07-06 19:35:00
2:55 PM,92.3,56.5,30,29.80,10.0,Calm,Calm,-,N/A,,Clear,0,2013-07-06 19:55:00
3:15 PM,92.5,56.5,30,29.80,10.0,Calm,Calm,-,N/A,,Clear,0,2013-07-06 20:15:00
3:35 PM,93.0,56.3,29,29.80,10.0,West,3.5,-,N/A,,Clear,270,2013-07-06 20:35:00
3:55 PM,93.4,55.8,28,29.81,10.0,West,4.6,-,N/A,,Clear,280,2013-07-06 20:55:00
4:15 PM,93.7,56.3,28,29.80,10.0,NNW,5.8,-,N/A,,Clear,340,2013-07-06 21:15:00
4:35 PM,94.1,55.8,27,29.80,10.0,North,6.9,-,N/A,,Clear,10,2013-07-06 21:35:00
4:55 PM,94.3,55.9,27,29.80,10.0,NNE,9.2,-,N/A,,Clear,30,2013-07-06 21:55:00
5:15 PM,94.5,56.3,28,29.80,10.0,North,8.1,-,N/A,,Clear,350,2013-07-06 22:15:00
5:35 PM,93.6,55.0,27,29.80,10.0,North,6.9,-,N/A,,Clear,360,2013-07-06 22:35:00
5:55 PM,91.9,55.8,29,29.80,10.0,North,4.6,-,N/A,,Clear,360,2013-07-06 22:55:00
6:15 PM,91.0,56.7,31,29.80,10.0,North,8.1,-,N/A,,Scattered Clouds,10,2013-07-06 23:15:00
6:35 PM,92.1,57.2,31,29.80,10.0,NNE,9.2,-,N/A,,Scattered Clouds,30,2013-07-06 23:35:00
6:55 PM,91.9,59.0,33,29.80,10.0,NE,6.9,-,N/A,,Clear,40,2013-07-06 23:55:00
7:15 PM,90.7,59.7,35,29.80,10.0,NE,9.2,-,N/A,,Clear,40,2013-07-07 00:15:00
7:35 PM,89.8,60.3,37,29.80,10.0,NE,8.1,-,N/A,,Clear,40,2013-07-07 00:35:00
7:55 PM,89.2,61.5,39,29.81,10.0,ENE,5.8,-,N/A,,Clear,60,2013-07-07 00:55:00
8:15 PM,87.8,61.9,42,29.82,10.0,NE,8.1,-,N/A,,Clear,40,2013-07-07 01:15:00
8:35 PM,86.2,62.6,45,29.83,10.0,NE,5.8,-,N/A,,Clear,40,2013-07-07 01:35:00
8:55 PM,84.2,64.0,51,29.83,10.0,NE,4.6,-,N/A,,Clear,40,2013-07-07 01:55:00
9:15 PM,82.9,63.9,52,29.83,10.0,Calm,Calm,-,N/A,,Clear,0,2013-07-07 02:15:00
9:35 PM,82.2,63.7,53,29.84,10.0,ENE,3.5,-,N/A,,Clear,60,2013-07-07 02:35:00
9:55 PM,79.9,63.9,58,29.84,10.0,ENE,4.6,-,N/A,,Clear,70,2013-07-07 02:55:00
10:15 PM,79.7,63.5,58,29.85,10.0,East,3.5,-,N/A,,Clear,90,2013-07-07 03:15:00
10:35 PM,79.7,62.8,56,29.87,10.0,Calm,Calm,-,N/A,,Clear,0,2013-07-07 03:35:00
10:55 PM,77.7,63.0,60,29.87,10.0,Calm,Calm,-,N/A,,Clear,0,2013-07-07 03:55:00
11:15 PM,74.1,63.5,69,29.87,10.0,NNW,3.5,-,N/A,,Clear,340,2013-07-07 04:15:00
11:35 PM,75.2,63.7,67,29.88,10.0,Calm,Calm,-,N/A,,Clear,0,2013-07-07 04:35:00
11:55 PM,76.5,63.5,64,29.87,10.0,Calm,Calm,-,N/A,,Clear,0,2013-07-07 04:55:00